sat.trackr.live / text

‹ back to catalog

STARLINK-37061

NORAD 68185 · 2026-050U

PAYLOAD ACTIVE UNKNOWN

§ Identity

Operator
Country
US
Launch date
2026-03-14
Launch site
AFETR
Launch vehicle
Mass (kg)
RCS (m²)

Purposes: comms

External: N2YO · Heavens-Above · Gunter

§ Orbital elements

Epoch: 2026-09-19T22:06:14.628096Z

Period
93.85 min
Inclination
53.1567°
Eccentricity
0.0001490
Mean motion
15.34382729 rev/d
Perigee alt
461.7 km
Apogee alt
463.8 km
Semi-major
6,840.9 km
B*
6.5013e-4
RAAN
80.1076°
Arg perigee
87.8947°
Mean anomaly
272.2226°
Rev number
3,048

§ Raw data

STARLINK-370611 68185U 26050U   26262.92100264  .00021641  00000+0  65013-3 0  99942 68185  53.1567  80.1076 0001490  87.8947 272.2226 15.34382729 30488

JSON: /api/v1/satellites/68185 · /tle

For live sub-satellite position, see the globe view (requires WebGL).

§ Visibility from observer

Set your observer location to see the next 7 days of passes ≥ 10°. The values pass through the URL so the page stays shareable.

No JS? Fill the form by hand. The geolocation button needs JavaScript.